Погода Колпашево

Погода Колпашево : погода сейчас, прогноз погоды и архив. Всё, что Вы хотите узнать о погоде Колпашево!

Хотите узнать прогноз погоды Колпашево? Тогда Вам сюда: Погода Колпашево

Поиск расширенной информации на нашем сайте:

Другие новости

Новости СМИ2

Главная страница сайта

Новости сайта

03.07.2017

Напоминаем, что на нашем специализированном сайте Метеоцентр.Азия вы можете получить высокодетализированные автоматические прогнозы погоды по пунктам России, СНГ и мира в авиационном формате (включающие направление и скорость ветра, видимость, явления погоды, количество и форму облачности, нижнюю и верхнюю границу облачности).

Рекомендуем: Видео и фото на свадьбу bachinskiy.kiev.ua.

Погода Колпашево - сегодня

Время (UTC), дата Ветер
(°,м/с) 
Видим.   Явления Облачность Т
(°С)
Тd
(°С)
f(%) Тe
(°С)
Pmin
(гПа)
dP
(гПа)
Po
(мм)
O2
(г/м3)
Тmin Tmax R s Состояние
почвы
12 20.08.17 280 (З) 20000 м    8/3 600 м кучево-дожд., средняя, верхняя 
[Cb cap|Ac cast|Ci fib]
+16.2 +10.2 68 +19  1017.5  0.2  756  286    +19.4       
15 20.08.17 тихо () {11}  20000 м  в посл. час ливневой дождь  8/3 300 м кучево-дожд., средняя, верхняя 
[Cb cap|Ac trans|Cc]
+10.8 +9.4 91 +11  1018.7  0.9  757  292           
18 20.08.17 290 (З) 20000 м  {ливн. осадки}  ясно 
+7.2 +6.7 97 +8  1019.2  0.4  757  296           
21 20.08.17 320 (СЗ) 20000 м    ясно 
+7.7 +7.3 97 +9  1019.5  0.4  758  296           
00 21.08.17 330 (СЗ) 20000 м    4/0 верхняя 
[Ci sp]
+6.3 +6 98 +7  1020.8  1.2  759  298  +5.2    0.0    влажная 
03 21.08.17 330 (СЗ) 20000 м    10/0 средняя, верхняя 
[Ac trans|Ci sp]
+12.7 +7.7 72 +13  1021.4  0.8  759  291           
06 21.08.17 310 (СЗ) 20000 м    9/4 300 м кучево-дожд., верхняя 
[Cb cap|Ci sp]
+14.6 +7.1 61 +15  1021.7  0.4  759  289           
09 21.08.17 260 (З) 20000 м    3/3 300 м кучево-дожд. 
[Cb cap]
+16.7 +5.6 48 +18  1021.1  -0.6  759  287           
12 21.08.17 290 (З) 20000 м    8/3 1000 м верхняя 
[Sc|Ci sp]
+15.3 +9.3 67 +17  1020.8  -0.3  759  288    +17.1       
15 21.08.17 тихо ()   4000 м  дымка  4/0 средняя, верхняя 
[Ac trans|Ci fib]
+9 +8.3 95 +9  1020.9  -0.1  759  295           
18 21.08.17 тихо ()   4000 м  дымка  8/6 1260 м средняя 
[Sc|Ac trans]
+10.7 +10.1 96 +12  1020.1  -0.8  758  292           
21 21.08.17 160 (Ю) 10 км  слаб. дождь  9/8 1000 м средняя 
[Sc|Ac trans]
+13.3 +9.7 79 +16  1018.8  -1.2  757  289           
00 22.08.17 140 (ЮВ) 20000 м  {дождь}  9/9 600 м кучево-дожд. 
[Cb cap]
+12.9 +11 88 +16  1017.9  -0.9  757  289  +8.8    0.0    влажная 
03 22.08.17 200 (Ю) 20000 м    10/8 600 м средняя 
[Sc|Ac trans]
+15 +12.5 85 +20  1016.4  -1.4  755  286           
06 22.08.17 210 (ЮЗ) 20000 м    10/6 600 м средняя 
[Sc|Ac trans]
+19.1 +15.4 79 +30  1014.5  -1.7  754  281           
09 22.08.17 220 (ЮЗ) 4000 м  ливневой дождь  10/10 300 м кучево-дожд. 
[Cb cap]
+17.3 +16.3 94 +29  1013.3  -1.3  753  282           
12 22.08.17 310 (СЗ) 20000 м  в посл. час ливневой дождь  9/8 300 м кучево-дожд., средняя 
[Cb cap|Ac trans]
+16.8 +15.2 90 +26  1014.6  1.3  754  283    +20.1     
15 22.08.17 280 (З) 4000 м  дымка  4/0 верхняя 
[Ci fib]
+14 +13.3 96 +21  1016.6  1.9  756  287           
18 22.08.17 290 (З) 4000 м  дымка  6/3 300 м кучево-дожд., верхняя 
[Cb cap|Ci fib]
+14 +12.7 92 +20  1017.7  1.1  756  287           
21 22.08.17 310 (СЗ) 4000 м  дымка  ясно 
+11.6 +10.8 95 +15  1018.7  0.9  757  291           
00 23.08.17 310 (СЗ) 20000 м    3/0 верхняя 
[Ci fib]
+11 +10.2 95 +13  1020.6  1.8  758  292  +11        мокрая 
03 23.08.17 290 (З) 20000 м    10/0 средняя, верхняя 
[Ac trans|Ci]
+15.1 +11.6 80 +19  1022.7  2.2  760  288           
06 23.08.17 280 (З) 20000 м    9/0 верхняя 
[Ci sp]
+19.2 +11.9 63 +23  1023  0.5  761  284           
09 23.08.17 270 (З) 20000 м    9/1 600 м средняя, верхняя 
[Cu hum|Ac trans|Cc]
+21.5 +11.7 54 +25  1022.6  -0.3  760  282           
12 23.08.17 280 (З) 20000 м    10/8 300 м кучево-дожд., средняя, верхняя 
[Cb cap|Ac As|Cs]
+18.7 +14.7 78 +28  1022.7  760  284    +21.8       
Время (UTC), дата Ветер
(°,м/с) 
Видим.   Явления Облачность Т
(°С)
Тd
(°С)
f(%) Тe
(°С)
Pmin
(гПа)
dP
(гПа)
Po
(мм)
O2
(г/м3)
Тmin Tmax R s Состояние
почвы

Для получения пояснительной информации подведите курсор к названию столбца.

ПОГОДА Колпашево - архив

Всё, что Вы хотите узнать о погоде Колпашево - удобно и подробно!

Выберите нужную дату (начиная с 1 января 2015* года) и нажмите кнопку "Найти".
Будут отображены архивные сводки погоды по пункту Колпашево, начиная с указанной даты.


Отображать данные в формате CSV (для использования в таблицах Excel)


Внимание! Наш архив погоды предназначен исключительно для личного некоммерческого использования в познавательных целях. Если Вам необходимы официальные справки о состоянии погоды (для производственных, юридических, коммерческих и т.п. целей), обращайтесь в органы Росгидромета.

*Примечание: данная дата относится к архиву по метеостанциям СССР (Россия, СНГ, Балтия).
Архив по метеостанциям Зарубежной Европы и Азии (кроме Китая) хранится 10 дней, по другим регионам земного шара (Китай, Африка, Америка, Австралия, Океания) - 1 день.

Колпашево - район местоположения метеостанции


Название, широта, долгота, высота метеостанции:
Колпашево 58.3°ш. 82.9°д. 75 м над ур. моря [Российская Федерация]

Дополнительная информация

В oтличие oт бoльшинства пoгoдных сайтoв мы публикуем пoдрoбную метеoинфoрмацию в детальнoм прoфессиoнальнoм фoрмате.

Характеристики температуры и влажнoсти вoздуха измеряются на высoте 2 м в тени вдали oт зданий и деревьев.
Скoрoсть ветра измеряется на высoте 10 м (на урoвне рoста челoвека скoрoсть ветра ниже в 1.5-2 раза). Если метеoстанция нахoдится в гoрoде или в лесу, тo скoрoсть ветра занижена на 2-4 м/с пo сравнению с oткрытым местoм. Скoрoсть ветра над акватoриями крупных рек и oзёр, а также на вершинах хoлмoв на 2-5 м/с выше, чем в oбычных услoвиях.
Атмoсфернoе давление в разных тoчках местнoсти мoжет значительнo oтличаться oт давления на метеoстанции, в зависимoсти oт услoвий рельефа (при пoдъёме на 10 м давление пoнижается примернo на 1 мм рт.ст.).